Hastings, NE

7:09 AM CST on February 19, 2017 (GMT -0600)
Hastings Municipal

Weather History for KHSI - March, 2014

Change the Weather History Date:

Friday, March 21, 2014

  Actual Average Record
Temperature  
Mean Temperature 44 °F 42 °F  
Max Temperature 58 °F 54 °F 87 °F (1910)
Min Temperature 29 °F 30 °F 0 °F (1913)
Degree Days  
Heating Degree Days 21 23  
Month to date heating degree days 590 566  
Since 1 July heating degree days 5470 5196  
Cooling Degree Days 0 0  
Month to date cooling degree days 0 0  
Year to date cooling degree days 0 0  
Moisture  
Dew Point 23 °F    
Average Humidity 47    
Maximum Humidity 70    
Minimum Humidity 24    
Precipitation  
Precipitation 0.00 in 0.05 in 1.51 in (1979)
Month to date precipitation 0.12 0.98  
Year to date precipitation 0.83 1.88  
Snow  
Snow 0.00 in 0.20 in 3.00 in (1897)
Month to date snowfall 1.1 3.8  
Since 1 July snowfall 19.4 26.2  
Snow Depth 0.00 in    
Sea Level Pressure  
Sea Level Pressure 30.00 in    
Wind  
Wind Speed 19 mph (North)    
Max Wind Speed 32 mph    
Max Gust Speed 45 mph    
Visibility 10 miles    
Events      
T = Trace of Precipitation, MM = Missing Value Source: NWS Daily Summary

Daily Weather History Graph

Daily Weather History Graph

Search for Another Location

Airport or City:

Trip Planner

Search our weather history database for the weather conditions in past years. The results will help you decide how hot, cold, wet, or windy it might be!

Date:

Astronomy

Mar. 21, 2014 Rise Set
Actual Time 7:35 AM CDT 7:46 PM CDT
Civil Twilight 7:08 AM CDT 8:14 PM CDT
Nautical Twilight 6:36 AM CDT 8:46 PM CDT
Astronomical Twilight 6:03 AM CDT 9:18 PM CDT
Moon 12:08 AM CDT (3/21) 10:27 AM CDT (3/21)
Length of Visible Light 13h 06m
Length of Day
12h 11m
Waning Gibbous, 75% of the Moon is Illuminated
Mar 21
Waning Gibbous
Mar 23
Last Quarter
Mar 30
New
Apr 7
First Quarter
Apr 15
Full

Hourly Weather History & Observations

Time (CDT) Temp. Windchill Dew Point Humidity Pressure Visibility Wind Dir Wind Speed Gust Speed Precip Events Conditions
12:53 AM 45.0 °F 42.6 °F 12.0 °F 26% 29.76 in 10.0 mi South 4.6 mph - N/A   Clear
1:53 AM 44.1 °F - 12.0 °F 27% 29.76 in 10.0 mi Calm Calm - N/A   Clear
2:53 AM 43.0 °F 39.5 °F 12.9 °F 30% 29.75 in 10.0 mi South 5.8 mph - N/A   Clear
3:53 AM 39.9 °F - 16.0 °F 38% 29.79 in 10.0 mi North - - N/A   Clear
4:53 AM 42.1 °F 33.3 °F 23.0 °F 47% 29.81 in 10.0 mi North 19.6 mph - N/A   Clear
5:53 AM 39.9 °F 30.8 °F 27.0 °F 60% 29.82 in 10.0 mi North 18.4 mph 25.3 mph N/A   Clear
6:53 AM 37.0 °F 28.5 °F 27.0 °F 67% 29.84 in 10.0 mi North 13.8 mph - N/A   Clear
7:53 AM 35.1 °F 26.9 °F 27.0 °F 72% 29.88 in 10.0 mi North 11.5 mph - N/A   Clear
8:53 AM 37.9 °F 30.9 °F 27.0 °F 65% 29.92 in 10.0 mi North 10.4 mph - N/A   Clear
9:53 AM 45.0 °F 36.2 °F 26.1 °F 48% 29.95 in 10.0 mi North 24.2 mph 27.6 mph N/A   Clear
10:53 AM 48.0 °F - 25.0 °F 41% 29.96 in 10.0 mi North 26.5 mph 35.7 mph N/A   Clear
11:53 AM 52.0 °F - 23.0 °F 32% 29.98 in 10.0 mi North 25.3 mph 32.2 mph N/A   Clear
12:53 PM 54.0 °F - 23.0 °F 30% 29.99 in 10.0 mi NNW 26.5 mph 36.8 mph N/A   Clear
1:53 PM 55.9 °F - 21.9 °F 27% 29.99 in 10.0 mi NNW 25.3 mph 34.5 mph N/A   Clear
2:53 PM 57.0 °F - 21.9 °F 26% 30.00 in 10.0 mi NNW 25.3 mph 36.8 mph N/A   Clear
3:53 PM 57.0 °F - 21.0 °F 25% 30.01 in 10.0 mi NNW 26.5 mph 35.7 mph N/A   Clear
4:53 PM 54.0 °F - 24.1 °F 31% 30.03 in 10.0 mi North 24.2 mph 39.1 mph N/A   Clear
5:53 PM 48.9 °F - 27.0 °F 43% 30.09 in 10.0 mi North 27.6 mph 38.0 mph N/A   Partly Cloudy
6:53 PM 43.0 °F 33.1 °F 26.1 °F 51% 30.15 in 10.0 mi North 26.5 mph 35.7 mph N/A   Clear
7:39 PM 41.0 °F 30.7 °F 27.0 °F 57% 30.15 in 10.0 mi North 25.3 mph 32.2 mph N/A   Overcast
7:53 PM 39.9 °F 29.7 °F 27.0 °F 60% 30.19 in 10.0 mi North 23.0 mph 31.1 mph N/A   Overcast
8:53 PM 39.0 °F 29.0 °F 27.0 °F 62% 30.21 in 10.0 mi North 20.7 mph - N/A   Overcast
9:53 PM 37.0 °F 25.9 °F 26.1 °F 65% 30.24 in 10.0 mi NNE 23.0 mph - N/A   Overcast
10:53 PM 35.1 °F 27.9 °F 24.1 °F 64% 30.27 in 10.0 mi North 9.2 mph - N/A   Mostly Cloudy
11:00 PM 35.1 °F 26.4 °F 24.1 °F 64% 30.23 in 10.0 mi North 12.7 mph - N/A   Scattered Clouds
11:53 PM 32.0 °F 23.6 °F 23.0 °F 69% 30.29 in 10.0 mi North 10.4 mph - N/A   Mostly Cloudy